Location: Juzet
(42.9779°N, 0.7597°E)
Time: 08:06:49
(UTC+00:00)

Iridium 4 Rocket - Pass Details

Date: 14 July 2020
Orbit: 583 x 906 km, 86.9° (Epoch: 04 August)

Event Time Altitude Azimuth Distance (km) Brightness Sun altitude
Exits shadow 00:24:12 51° 127° (SE) 1,067 4.0 -25.2°
Maximum altitude 00:25:10 58° 88° (E) 982 4.0 -25.2°
Drops below altitude 10° 00:30:27 10° 10° (N) 2,386 7.1 -25.1°
Sets 00:32:46 0° 7° (N) 3,271 8.2 -25.0°
